Bloomington, IN

8:10 PM EDT on April 30, 2017 (GMT -0400)
Monroe County

Weather History for KBMG - December, 2012

Change the Weather History Date:

Friday, December 28, 2012

  Actual Average Record
Temperature  
Mean Temperature 31 °F 30 °F  
Max Temperature 33 °F 38 °F 64 °F (1996)
Min Temperature 29 °F 21 °F 1 °F (2000)
Degree Days  
Heating Degree Days 34 35  
Month to date heating degree days 680 911  
Since 1 July heating degree days 1896 1967  
Cooling Degree Days 0 0  
Month to date cooling degree days 1 0  
Year to date cooling degree days 1310 927  
Moisture  
Dew Point 26 °F    
Average Humidity 80    
Maximum Humidity 85    
Minimum Humidity 75    
Precipitation  
Precipitation 0.04 in 0.14 in 0.67 in (2015)
Month to date precipitation 2.11 3.16  
Year to date precipitation 30.94 47.17  
Sea Level Pressure  
Sea Level Pressure 29.98 in    
Wind  
Wind Speed 4 mph (ESE)    
Max Wind Speed 10 mph    
Max Gust Speed 14 mph    
Visibility 8 miles    
Events Snow    
T = Trace of Precipitation, MM = Missing Value Source: NWS Daily Summary

Daily Weather History Graph

Daily Weather History Graph

Search for Another Location

Airport or City:

Trip Planner

Search our weather history database for the weather conditions in past years. The results will help you decide how hot, cold, wet, or windy it might be!

Date:

Astronomy

Dec. 28, 2012 Rise Set
Actual Time 8:05 AM EST 5:31 PM EST
Civil Twilight 7:35 AM EST 6:01 PM EST
Nautical Twilight 7:01 AM EST 6:35 PM EST
Astronomical Twilight 6:28 AM EST 7:07 PM EST
Moon 6:07 PM EST (12/28) 7:59 AM EST (12/28)
Length of Visible Light 10h 26m
Length of Day
9h 26m
Full, 100% of the Moon is Illuminated
Dec 28
Full
Jan 4
Last Quarter
Jan 11
New
Jan 18
First Quarter
Jan 26
Full

Hourly Weather History & Observations

Time (EST) Temp. Windchill Dew Point Humidity Pressure Visibility Wind Dir Wind Speed Gust Speed Precip Events Conditions
12:53 AM 30.0 °F 26.5 °F 25.0 °F 82% 30.13 in 10.0 mi SE 3.5 mph - N/A   Overcast
1:53 AM 30.0 °F 26.5 °F 25.0 °F 82% 30.13 in 10.0 mi SSE 3.5 mph - N/A   Overcast
2:53 AM 30.0 °F 26.5 °F 25.0 °F 82% 30.13 in 10.0 mi ESE 3.5 mph - N/A   Overcast
3:53 AM 30.0 °F 23.2 °F 25.0 °F 82% 30.10 in 10.0 mi East 6.9 mph - N/A   Overcast
4:53 AM 30.0 °F 26.5 °F 25.0 °F 82% 30.09 in 10.0 mi ESE 3.5 mph - N/A   Overcast
5:53 AM 30.0 °F 25.2 °F 25.0 °F 82% 30.07 in 10.0 mi SE 4.6 mph - N/A   Overcast
6:53 AM 30.0 °F 26.5 °F 25.0 °F 82% 30.07 in 10.0 mi ESE 3.5 mph - N/A   Overcast
7:53 AM 28.9 °F - 25.0 °F 85% 30.11 in 10.0 mi Calm Calm - N/A   Overcast
8:53 AM 30.0 °F - 25.0 °F 82% 30.12 in 10.0 mi Calm Calm - N/A   Overcast
9:18 AM 30.2 °F - 24.8 °F 80% 30.10 in 10.0 mi Calm Calm - N/A   Overcast
9:53 AM 30.0 °F 26.5 °F 25.0 °F 82% 30.12 in 10.0 mi ESE 3.5 mph - N/A   Overcast
10:53 AM 30.9 °F 26.2 °F 26.1 °F 82% 30.11 in 10.0 mi SE 4.6 mph - N/A   Overcast
11:53 AM 32.0 °F 24.8 °F 26.1 °F 79% 30.06 in 10.0 mi SE 8.1 mph - N/A   Overcast
12:05 PM 32.0 °F 23.6 °F 26.6 °F 80% 30.03 in 10.0 mi SSE 10.4 mph - N/A   Overcast
12:50 PM 32.0 °F 24.8 °F 26.6 °F 80% 29.99 in 10.0 mi SE 8.1 mph - N/A   Overcast
12:53 PM 32.0 °F 24.8 °F 26.1 °F 79% 30.01 in 10.0 mi SSE 8.1 mph - N/A   Overcast
1:53 PM 33.1 °F 26.9 °F 26.1 °F 75% 29.98 in 10.0 mi SE 6.9 mph - N/A   Overcast
2:53 PM 33.1 °F 27.7 °F 26.1 °F 75% 29.96 in 10.0 mi SE 5.8 mph - N/A   Overcast
3:53 PM 32.0 °F 27.5 °F 26.1 °F 79% 29.96 in 10.0 mi South 4.6 mph - N/A   Overcast
4:53 PM 33.1 °F 28.7 °F 26.1 °F 75% 29.96 in 10.0 mi SSE 4.6 mph - N/A   Overcast
5:53 PM 32.0 °F 27.5 °F 26.1 °F 79% 29.93 in 10.0 mi ESE 4.6 mph - N/A   Overcast
6:53 PM 32.0 °F 27.5 °F 26.1 °F 79% 29.93 in 10.0 mi East 4.6 mph - N/A   Overcast
7:53 PM 30.9 °F 25.2 °F 26.1 °F 82% 29.92 in 10.0 mi East 5.8 mph - N/A   Overcast
8:53 PM 30.9 °F 26.2 °F 26.1 °F 82% 29.89 in 10.0 mi East 4.6 mph - N/A   Overcast
9:53 PM 30.9 °F 27.5 °F 26.1 °F 82% 29.86 in 8.0 mi East 3.5 mph - N/A   Overcast
10:01 PM 30.2 °F 26.7 °F 26.6 °F 86% 29.85 in 6.0 mi East 3.5 mph - N/A   Haze
10:15 PM 30.2 °F 26.7 °F 26.6 °F 86% 29.84 in 2.0 mi East 3.5 mph - 0.00 in Snow Light Snow
10:40 PM 30.2 °F 25.4 °F 26.6 °F 86% 29.84 in 1.2 mi ESE 4.6 mph - 0.00 in Snow Light Snow
10:53 PM 30.0 °F 26.5 °F 28.0 °F 92% 29.84 in 1.5 mi East 3.5 mph - 0.00 in Snow Light Snow
11:33 PM 30.2 °F - 28.4 °F 93% 29.82 in 0.8 mi Calm Calm - 0.02 in Snow Light Snow
11:45 PM 30.2 °F - 28.4 °F 93% 29.80 in 1.0 mi Calm Calm - 0.03 in Snow Light Snow
11:48 PM 30.2 °F - 28.4 °F 93% 29.80 in 0.8 mi Calm Calm - 0.03 in Snow Light Snow
11:53 PM 30.0 °F - 28.0 °F 92% 29.83 in 0.8 mi Calm Calm - 0.03 in Snow Light Snow